QPF
0.01 0.00 0.00 0.01 0.01 0.01 0.01 0.01 0.01 0.00 0.00 0.00 0.00 0.00 0.00 0.00 0.02 0.02 0.00 0.00 0.02 0.04 0.01 0.00 0.00 0.00 0.00 0.00 0.01 0.00 0.01 0.00 0.00 0.03 0.04 0.03 0.05 0.06 0.01 0.00 0.00 0.00 0.00 0.02 0.04 0.03 0.01 0.00 0.00 0.00 0.00 0.00 0.00 0.00
0.01 0.01 0.01 0.01 0.01 0.01 0.01 0.01 0.00 0.00 0.00 0.00 0.00 0.01 0.01 0.01 0.01 0.02 0.00 0.00 0.00 0.04 0.01 0.00 0.00 0.00 0.00 0.00 0.01 0.02 0.02 0.00 0.01 0.01 0.06 0.05 0.03 0.03 0.01 0.01 0.03 0.05 0.06 0.05 0.02 0.01 0.00 0.02 0.00 0.00 0.00 0.00 0.00 0.00
0.01 0.01 0.01 0.01 0.01 0.01 0.00 0.00 0.00 0.01 0.01 0.00 0.01 0.00 0.00 0.01 0.02 0.01 0.00 0.00 0.00 0.00 0.00 0.00 0.00 0.00 0.00 0.00 0.00 0.00 0.00 0.00 0.00 0.01 0.06 0.03 0.01 0.00 0.00 0.00 0.01 0.02 0.06 0.10 0.07 0.05 0.08 0.06 0.02 0.00 0.00 0.00 0.00 0.00
0.01 0.00 0.01 0.01 0.00 0.01 0.01 0.00 0.01 0.01 0.01 0.00 0.00 0.00 0.00 0.01 0.01 0.01 0.00 0.00 0.02 0.04 0.03 0.00 0.00 0.00 0.00 0.00 0.00 0.00 0.00 0.00 0.01 0.06 0.19 0.10 0.04 0.02 0.01 0.00 0.00 0.00 0.00 0.00 0.00 0.00 0.01 0.02 0.02 0.00 0.00 0.00 0.00 0.00
0.01 0.01 0.01 0.01 0.01 0.01 0.01 0.01 0.00 0.00 0.00 0.00 0.01 0.00 0.00 0.01 0.02 0.01 0.00 0.00 0.00 0.02 0.01 0.00 0.00 0.00 0.00 0.00 0.00 0.00 0.00 0.00 0.04 0.18 0.14 0.04 0.00 0.00 0.00 0.00 0.00 0.00 0.00 0.00 0.00 0.00 0.01 0.00 0.01 0.00 0.00 0.00 0.00 0.00
0.00 0.01 0.01 0.01 0.01 0.01 0.00 0.00 0.00 0.00 0.00 0.00 0.00 0.01 0.01 0.00 0.01 0.00 0.00 0.01 0.01 0.00 0.03 0.01 0.00 0.00 0.00 0.00 0.00 0.00 0.00 0.00 0.05 0.11 0.07 0.02 0.00 0.01 0.02 0.00 0.00 0.00 0.00 0.00 0.00 0.00 0.00 0.00 0.00 0.00 0.00 0.00 0.00 0.00
0.00 0.00 0.00 0.00 0.01 0.01 0.01 0.00 0.00 0.01 0.01 0.00 0.00 0.01 0.00 0.01 0.01 0.00 0.00 0.00 0.01 0.05 0.08 0.02 0.00 0.00 0.00 0.00 0.00 0.00 0.00 0.00 0.01 0.04 0.02 0.00 0.00 0.01 0.02 0.00 0.00 0.00 0.00 0.00 0.00 0.00 0.00 0.00 0.00 0.00 0.00 0.00 0.00 0.00
0.00 0.00 0.00 0.00 0.00 0.00 0.00 0.00 0.00 0.00 0.00 0.00 0.00 0.01 0.01 0.02 0.01 0.01 0.00 0.00 0.01 0.07 0.04 0.01 0.00 0.00 0.00 0.00 0.00 0.00 0.00 0.00 0.01 0.01 0.00 0.00 0.00 0.01 0.01 0.00 0.00 0.00 0.00 0.00 0.00 0.00 0.00 0.00 0.00 0.00 0.00 0.00 0.00 0.00
0.00 0.00 0.00 0.00 0.00 0.00 0.00 0.00 0.00 0.01 0.00 0.00 0.00 0.01 0.01 0.01 0.00 0.00 0.00 0.00 0.00 0.01 0.02 0.01 0.00 0.00 0.01 0.03 0.03 0.06 0.02 0.02 0.01 0.01 0.00 0.00 0.00 0.01 0.00 0.01 0.01 0.03 0.03 0.01 0.00 0.00 0.00 0.00 0.00 0.00 0.00 0.00 0.00 0.00
0.00 0.00 0.00 0.00 0.00 0.00 0.00 0.00 0.00 0.00 0.00 0.00 0.00 0.00 0.00 0.00 0.00 0.00 0.01 0.01 0.08 0.07 0.05 0.01 0.00 0.00 0.00 0.00 0.04 0.16 0.17 0.09 0.05 0.00 0.00 0.00 0.00 0.00 0.01 0.01 0.00 0.01 0.01 0.01 0.00 0.00 0.00 0.00 0.00 0.00 0.00 0.00 0.00 0.00
0.00 0.00 0.00 0.00 0.00 0.00 0.00 0.00 0.00 0.00 0.00 0.00 0.02 0.04 0.00 0.01 0.00 0.00 0.01 0.02 0.01 0.03 0.03 0.00 0.00 0.00 0.00 0.00 0.00 0.00 0.01 0.01 0.02 0.00 0.00 0.01 0.03 0.10 0.12 0.10 0.11 0.04 0.00 0.00 0.00 0.00 0.00 0.00 0.00 0.00 0.00 0.00 0.00 0.00
0.00 0.00 0.00 0.00 0.00 0.00 0.00 0.00 0.00 0.00 0.00 0.04 0.04 0.02 0.00 0.00 0.00 0.00 0.00 0.01 0.01 0.00 0.00 0.00 0.00 0.00 0.00 0.03 0.06 0.06 0.03 0.02 0.01 0.02 0.02 0.01 0.02 0.01 0.00 0.00 0.00 0.00 0.00 0.00 0.00 0.00 0.00 0.00 0.00 0.00 0.00 0.00 0.00 0.00
0.00 0.00 0.00 0.00 0.00 0.00 0.00 0.00 0.00 0.00 0.00 0.00 0.00 0.00 0.00 0.00 0.00 0.01 0.00 0.00 0.00 0.00 0.01 0.01 0.02 0.02 0.02 0.02 0.10 0.14 0.07 0.01 0.00 0.01 0.00 0.01 0.00 0.00 0.00 0.00 0.00 0.00 0.00 0.00 0.00 0.00 0.00 0.00 0.00 0.00 0.00 0.00 0.00 0.00
0.00 0.00 0.00 0.00 0.00 0.01 0.02 0.01 0.00 0.00 0.00 0.00 0.02 0.02 0.00 0.00 0.00 0.00 0.00 0.00 0.00 0.00 0.00 0.02 0.10 0.13 0.05 0.03 0.01 0.00 0.00 0.01 0.01 0.00 0.01 0.01 0.00 0.00 0.00 0.00 0.00 0.00 0.00 0.00 0.00 0.00 0.00 0.00 0.00 0.00 0.00 0.00 0.00 0.00
0.01 0.00 0.00 0.00 0.00 0.00 0.00 0.00 0.01 0.00 0.00 0.00 0.01 0.00 0.00 0.00 0.00 0.00 0.00 0.00 0.00 0.00 0.00 0.01 0.01 0.01 0.01 0.01 0.00 0.00 0.01 0.00 0.00 0.00 0.00 0.00 0.00 0.00 0.00 0.00 0.00 0.00 0.00 0.00 0.00 0.00 0.00 0.00 0.00 0.00 0.00 0.00 0.00 0.00
0.02 0.01 0.00 0.00 0.00 0.00 0.00 0.00 0.03 0.03 0.01 0.00 0.00 0.00 0.00 0.00 0.00 0.00 0.00 0.00 0.00 0.00 0.01 0.00 0.00 0.00 0.01 0.00 0.00 0.00 0.00 0.00 0.00 0.00 0.00 0.00 0.00 0.00 0.00 0.00 0.00 0.00 0.00 0.00 0.00 0.00 0.00 0.00 0.00 0.00 0.00 0.00 0.00 0.00
0.04 0.03 0.00 0.00 0.00 0.00 0.00 0.00 0.02 0.08 0.02 0.01 0.00 0.00 0.00 0.00 0.00 0.00 0.00 0.00 0.00 0.01 0.01 0.03 0.02 0.00 0.00 0.01 0.00 0.00 0.00 0.00 0.00 0.00 0.00 0.00 0.00 0.00 0.00 0.00 0.00 0.00 0.00 0.00 0.00 0.00 0.00 0.00 0.00 0.00 0.00 0.00 0.00 0.00
0.05 0.00 0.00 0.00 0.00 0.00 0.00 0.00 0.01 0.01 0.02 0.00 0.00 0.00 0.00 0.00 0.00 0.00 0.00 0.00 0.00 0.01 0.03 0.06 0.06 0.03 0.01 0.02 0.03 0.01 0.01 0.02 0.01 0.00 0.00 0.00 0.00 0.00 0.00 0.00 0.00 0.00 0.00 0.00 0.00 0.00 0.00 0.00 0.00 0.00 0.00 0.00 0.00 0.00
0.05 0.02 0.00 0.00 0.00 0.00 0.00 0.01 0.01 0.01 0.00 0.00 0.00 0.00 0.00 0.00 0.00 0.00 0.00 0.00 0.01 0.02 0.06 0.05 0.02 0.01 0.00 0.00 0.00 0.00 0.00 0.00 0.00 0.00 0.00 0.00 0.00 0.00 0.00 0.00 0.00 0.00 0.00 0.00 0.00 0.01 0.00 0.00 0.00 0.00 0.00 0.00 0.00 0.00
0.08 0.06 0.00 0.00 0.00 0.00 0.00 0.00 0.01 0.01 0.00 0.00 0.00 0.00 0.00 0.00 0.00 0.00 0.00 0.00 0.02 0.05 0.07 0.05 0.01 0.00 0.00 0.00 0.00 0.00 0.00 0.00 0.00 0.00 0.00 0.00 0.00 0.00 0.00 0.00 0.00 0.01 0.01 0.00 0.00 0.00 0.00 0.00 0.00 0.00 0.00 0.00 0.00 0.00
0.02 0.00 0.00 0.00 0.01 0.02 0.01 0.00 0.01 0.00 0.00 0.00 0.00 0.00 0.00 0.00 0.00 0.00 0.00 0.01 0.03 0.05 0.03 0.00 0.00 0.00 0.00 0.00 0.00 0.00 0.00 0.00 0.00 0.00 0.00 0.00 0.00 0.00 0.00 0.00 0.01 0.01 0.00 0.00 0.00 0.00 0.00 0.00 0.00 0.00 0.00 0.00 0.00 0.01
0.01 0.00 0.00 0.01 0.02 0.02 0.02 0.00 0.00 0.00 0.00 0.00 0.00 0.00 0.00 0.00 0.00 0.00 0.02 0.06 0.04 0.00 0.00 0.00 0.00 0.00 0.00 0.00 0.00 0.00 0.00 0.00 0.00 0.00 0.00 0.00 0.00 0.00 0.00 0.01 0.00 0.00 0.00 0.00 0.00 0.01 0.01 0.00 0.00 0.00 0.00 0.00 0.00 0.00
0.01 0.00 0.00 0.01 0.03 0.02 0.00 0.00 0.00 0.00 0.00 0.00 0.00 0.00 0.00 0.00 0.00 0.02 0.05 0.06 0.02 0.00 0.00 0.00 0.00 0.00 0.00 0.00 0.00 0.00 0.00 0.00 0.00 0.00 0.00 0.00 0.00 0.00 0.01 0.02 0.00 0.00 0.00 0.00 0.00 0.00 0.01 0.00 0.00 0.00 0.00 0.00 0.00 0.00
0.02 0.01 0.02 0.01 0.00 0.00 0.00 0.00 0.01 0.01 0.01 0.00 0.00 0.00 0.00 0.00 0.01 0.03 0.01 0.00 0.00 0.00 0.00 0.00 0.00 0.00 0.00 0.00 0.00 0.00 0.00 0.00 0.00 0.00 0.00 0.00 0.00 0.00 0.00 0.01 0.00 0.00 0.00 0.00 0.00 0.00 0.00 0.00 0.00 0.01 0.00 0.00 0.00 0.00
0.05 0.03 0.00 0.01 0.01 0.00 0.00 0.00 0.00 0.00 0.00 0.00 0.01 0.02 0.01 0.02 0.02 0.02 0.01 0.00 0.00 0.00 0.00 0.00 0.00 0.00 0.00 0.00 0.00 0.00 0.00 0.00 0.00 0.00 0.00 0.00 0.00 0.00 0.00 0.00 0.00 0.00 0.00 0.00 0.00 0.00 0.00 0.00 0.00 0.00 0.00 0.00 0.00 0.01
0.03 0.01 0.01 0.00 0.00 0.00 0.00 0.00 0.00 0.00 0.00 0.00 0.00 0.00 0.03 0.06 0.06 0.05 0.02 0.00 0.00 0.00 0.00 0.00 0.00 0.00 0.01 0.01 0.00 0.00 0.00 0.00 0.00 0.00 0.00 0.00 0.00 0.00 0.00 0.00 0.00 0.00 0.00 0.00 0.01 0.00 0.00 0.00 0.00 0.00 0.00 0.00 0.00 0.01
0.02 0.01 0.00 0.00 0.00 0.00 0.01 0.01 0.01 0.02 0.02 0.01 0.00 0.00 0.02 0.04 0.05 0.03 0.01 0.01 0.00 0.00 0.00 0.00 0.00 0.00 0.00 0.00 0.00 0.00 0.00 0.00 0.00 0.00 0.00 0.00 0.00 0.00 0.00 0.00 0.00 0.00 0.00 0.00 0.00 0.00 0.01 0.00 0.00 0.00 0.00 0.00 0.00 0.01
0.02 0.00 0.00 0.00 0.00 0.00 0.00 0.01 0.06 0.06 0.04 0.03 0.02 0.04 0.04 0.01 0.00 0.00 0.00 0.00 0.00 0.00 0.00 0.00 0.00 0.00 0.00 0.00 0.00 0.00 0.00 0.00 0.00 0.00 0.01 0.01 0.00 0.00 0.00 0.00 0.00 0.00 0.00 0.00 0.00 0.00 0.00 0.01 0.00 0.00 0.00 0.00 0.00 0.01
0.00 0.00 0.00 0.00 0.00 0.00 0.01 0.03 0.04 0.02 0.01 0.01 0.00 0.01 0.02 0.01 0.00 0.00 0.00 0.00 0.00 0.00 0.00 0.00 0.00 0.00 0.00 0.00 0.00 0.00 0.00 0.00 0.00 0.00 0.00 0.00 0.00 0.00 0.00 0.00 0.00 0.00 0.00 0.00 0.00 0.00 0.00 0.00 0.00 0.01 0.01 0.02 0.01 0.01
0.00 0.00 0.00 0.01 0.03 0.03 0.03 0.02 0.02 0.02 0.00 0.00 0.00 0.00 0.00 0.00 0.00 0.00 0.00 0.00 0.00 0.00 0.00 0.00 0.00 0.00 0.00 0.00 0.00 0.00 0.00 0.00 0.00 0.00 0.00 0.00 0.00 0.00 0.00 0.00 0.00 0.00 0.00 0.00 0.00 0.00 0.00 0.00 0.00 0.00 0.00 0.01 0.01 0.02
0.00 0.00 0.00 0.03 0.06 0.05 0.03 0.01 0.00 0.00 0.00 0.00 0.00 0.00 0.00 0.00 0.00 0.00 0.00 0.00 0.00 0.00 0.00 0.00 0.00 0.00 0.00 0.00 0.00 0.00 0.00 0.00 0.00 0.00 0.00 0.00 0.00 0.00 0.00 0.00 0.00 0.00 0.00 0.00 0.00 0.00 0.00 0.00 0.00 0.00 0.00 0.01 0.02 0.03
0.00 0.03 0.07 0.05 0.04 0.02 0.01 0.01 0.00 0.00 0.00 0.00 0.00 0.00 0.00 0.00 0.00 0.00 0.00 0.00 0.00 0.00 0.00 0.00 0.00 0.00 0.00 0.00 0.00 0.00 0.00 0.00 0.00 0.00 0.00 0.00 0.00 0.00 0.00 0.00 0.00 0.00 0.00 0.00 0.00 0.00 0.00 0.00 0.00 0.00 0.00 0.00 0.01 0.03
0.04 0.02 0.05 0.03 0.01 0.01 0.01 0.00 0.00 0.00 0.00 0.00 0.00 0.00 0.00 0.00 0.00 0.00 0.01 0.00 0.00 0.00 0.00 0.00 0.00 0.00 0.00 0.00 0.00 0.00 0.00 0.00 0.00 0.00 0.00 0.00 0.00 0.00 0.00 0.00 0.00 0.00 0.00 0.00 0.00 0.00 0.00 0.00 0.00 0.00 0.00 0.00 0.01 0.03
MSLP
1017.17 1017.10 1017.08 1016.97 1016.77 1016.62 1016.53 1016.48 1016.55 1016.62 1016.69 1016.81 1016.93 1016.99 1016.92 1017.06 1017.17 1017.63 1017.94 1018.21 1018.62 1017.99 1016.66 1016.21 1016.05 1016.19 1016.10 1016.17 1016.16 1015.69 1015.72 1015.10 1015.44 1015.69 1015.59 1014.59 1013.27 1012.10 1011.07 1009.40 1008.27 1008.26 1008.41 1008.21 1008.06 1007.38 1005.30 1002.48 1001.53 1001.53 1001.34 1000.20 999.36 998.64
1016.83 1016.76 1016.70 1016.58 1016.44 1016.30 1016.22 1016.27 1016.28 1016.27 1016.23 1016.29 1016.42 1016.29 1016.19 1016.44 1016.62 1016.81 1017.63 1017.54 1017.52 1017.71 1016.21 1015.51 1015.04 1014.86 1015.03 1014.70 1015.46 1015.20 1014.91 1014.77 1014.57 1014.78 1014.82 1014.42 1013.61 1012.39 1010.90 1009.42 1007.69 1007.76 1008.04 1008.00 1006.71 1005.54 1004.41 1003.54 1003.03 1001.60 1001.05 1000.26 999.23 998.63
1016.62 1016.43 1016.35 1016.25 1016.13 1016.02 1016.03 1016.02 1015.94 1015.82 1015.68 1015.85 1015.89 1015.84 1015.79 1015.85 1015.80 1016.26 1017.10 1017.21 1017.58 1017.14 1015.59 1014.38 1013.17 1012.64 1012.75 1012.78 1013.28 1014.37 1013.92 1014.10 1013.80 1013.69 1014.27 1014.00 1013.07 1011.81 1010.39 1008.71 1007.56 1006.76 1006.72 1007.03 1006.53 1004.82 1004.41 1003.61 1002.22 1001.07 1000.49 999.97 999.24 998.83
1016.44 1016.23 1016.09 1015.97 1015.89 1015.78 1015.67 1015.60 1015.48 1015.34 1015.30 1015.53 1015.49 1015.56 1015.54 1015.49 1015.41 1015.68 1016.72 1016.80 1017.29 1017.20 1015.91 1013.22 1012.08 1011.78 1011.16 1011.26 1011.70 1012.00 1012.25 1012.70 1012.80 1013.17 1013.18 1012.64 1011.74 1010.48 1009.54 1008.33 1007.47 1006.81 1006.40 1005.45 1004.95 1004.07 1003.16 1002.33 1001.84 1000.92 1000.32 999.86 999.49 999.07
1016.53 1016.16 1015.88 1015.69 1015.62 1015.52 1015.35 1015.30 1015.20 1015.08 1015.03 1015.10 1015.07 1015.00 1015.21 1015.17 1015.09 1015.32 1015.95 1016.02 1016.08 1016.99 1015.64 1013.88 1012.31 1009.71 1009.44 1010.01 1010.37 1010.94 1011.46 1011.92 1012.17 1012.18 1011.66 1011.09 1010.34 1010.02 1008.83 1008.12 1006.36 1005.64 1004.71 1004.75 1003.87 1003.12 1003.02 1002.35 1001.35 1001.09 1000.75 1000.46 1000.14 999.85
1016.54 1016.20 1015.96 1015.68 1015.42 1015.22 1015.06 1014.98 1014.78 1014.66 1014.53 1014.58 1014.76 1014.72 1014.56 1014.71 1014.95 1015.70 1015.88 1015.19 1014.88 1015.48 1016.21 1014.51 1011.59 1009.38 1008.56 1008.56 1009.00 1009.61 1010.10 1010.80 1011.05 1010.83 1010.35 1009.70 1009.05 1009.01 1008.24 1006.50 1004.26 1004.03 1003.59 1003.26 1003.48 1002.67 1001.94 1001.38 1001.11 1001.11 1001.08 1000.93 1000.73 1000.57
1016.33 1016.10 1015.87 1015.61 1015.41 1015.17 1014.88 1014.66 1014.44 1014.20 1014.18 1014.22 1014.34 1014.37 1014.25 1014.27 1014.79 1015.32 1014.77 1014.71 1014.62 1015.10 1015.47 1014.09 1012.16 1009.35 1008.18 1008.15 1008.67 1009.09 1009.21 1009.61 1009.91 1009.89 1009.32 1009.06 1008.53 1008.33 1007.55 1005.63 1002.68 1003.68 1003.12 1002.66 1002.88 1002.17 1002.10 1001.77 1001.65 1001.54 1001.49 1001.35 1001.28 1001.21
1016.00 1015.85 1015.64 1015.39 1015.17 1014.95 1014.69 1014.46 1014.07 1013.87 1013.78 1013.88 1013.80 1013.94 1013.81 1013.77 1013.79 1014.01 1013.48 1013.70 1014.34 1015.18 1015.02 1014.09 1012.20 1010.52 1008.25 1008.65 1008.79 1008.77 1009.23 1009.27 1009.13 1009.02 1008.76 1008.57 1008.26 1007.77 1006.57 1004.05 1003.46 1002.98 1002.39 1002.24 1002.45 1002.58 1002.56 1002.34 1002.19 1002.11 1002.14 1002.09 1001.88 1001.59
1015.60 1015.52 1015.32 1015.06 1014.87 1014.60 1014.44 1014.10 1013.76 1013.51 1013.38 1013.44 1013.43 1013.38 1013.50 1013.53 1013.63 1013.11 1012.04 1012.46 1013.69 1014.58 1013.99 1013.11 1012.24 1010.45 1008.51 1008.59 1008.64 1008.82 1008.64 1008.67 1008.57 1008.48 1007.94 1007.67 1007.12 1006.12 1004.45 1003.98 1003.41 1003.33 1003.30 1003.07 1003.03 1002.84 1002.61 1002.58 1002.54 1002.32 1002.35 1002.30 1002.12 1002.02
1015.09 1015.02 1014.92 1014.76 1014.54 1014.31 1014.03 1013.77 1013.47 1013.15 1012.95 1012.92 1013.15 1013.27 1013.00 1012.65 1011.81 1012.00 1011.97 1012.58 1013.26 1013.01 1012.92 1011.59 1010.83 1009.91 1009.28 1008.81 1008.78 1008.68 1008.38 1008.03 1007.87 1006.94 1006.91 1006.67 1005.54 1004.63 1004.56 1004.43 1004.23 1004.09 1003.91 1003.67 1003.41 1003.15 1003.28 1003.16 1003.00 1002.48 1002.12 1002.14 1002.07 1001.71
1014.54 1014.50 1014.46 1014.31 1014.09 1013.88 1013.65 1013.43 1013.15 1012.85 1012.44 1012.67 1012.83 1012.70 1012.09 1011.43 1011.88 1012.09 1012.10 1012.25 1011.81 1011.42 1010.66 1009.53 1009.35 1008.88 1008.48 1008.43 1008.50 1008.23 1007.58 1007.09 1006.90 1005.90 1006.07 1005.64 1005.08 1004.89 1004.73 1004.63 1004.77 1004.56 1004.40 1004.11 1004.08 1003.96 1003.80 1003.60 1003.27 1002.61 1001.88 1001.64 1001.40 1001.13
1014.12 1014.02 1013.91 1013.74 1013.62 1013.42 1013.25 1012.99 1012.82 1012.79 1012.47 1012.30 1012.55 1012.20 1012.08 1011.74 1012.14 1012.31 1011.75 1010.99 1010.60 1009.62 1008.51 1008.31 1007.80 1007.97 1007.34 1007.06 1007.47 1006.97 1006.62 1006.45 1005.79 1005.37 1005.74 1005.27 1005.06 1004.92 1004.89 1004.87 1004.71 1004.60 1004.57 1004.44 1004.20 1003.92 1003.63 1003.33 1003.11 1002.96 1002.68 1002.08 1001.49 1000.83
1013.59 1013.52 1013.33 1013.18 1013.04 1012.81 1012.67 1012.34 1012.29 1012.31 1012.22 1012.01 1011.97 1012.19 1012.15 1011.98 1012.19 1011.57 1010.99 1009.55 1008.89 1007.80 1007.30 1007.02 1006.97 1006.61 1006.27 1006.18 1006.20 1005.88 1005.67 1005.56 1005.09 1005.36 1005.31 1005.16 1004.90 1004.87 1004.80 1004.71 1004.71 1004.71 1004.70 1004.67 1004.35 1004.04 1003.72 1003.42 1003.03 1002.84 1002.43 1002.06 1001.59 1001.06
1012.91 1012.88 1012.74 1012.53 1012.40 1012.30 1012.33 1011.38 1011.47 1011.83 1012.04 1012.22 1011.96 1011.73 1011.42 1010.81 1010.16 1009.23 1008.79 1008.02 1007.28 1006.97 1006.93 1006.88 1006.69 1006.63 1005.83 1005.79 1005.57 1005.70 1005.15 1005.09 1005.27 1005.52 1005.10 1004.95 1004.89 1004.88 1004.71 1004.71 1004.80 1004.84 1004.82 1004.56 1004.24 1003.96 1003.75 1003.42 1003.04 1002.65 1002.14 1001.70 1001.28 1000.66
1012.34 1012.21 1012.09 1011.92 1011.76 1011.41 1011.28 1011.06 1010.85 1011.37 1011.43 1011.65 1011.27 1010.37 1009.34 1008.45 1008.16 1008.02 1007.88 1007.68 1006.99 1006.69 1006.63 1006.78 1006.60 1006.12 1005.63 1005.54 1005.08 1005.08 1005.02 1004.82 1004.80 1004.92 1004.81 1004.80 1004.94 1004.92 1004.84 1004.91 1005.02 1004.93 1004.72 1004.48 1004.18 1003.91 1003.68 1003.40 1003.06 1002.56 1002.00 1001.48 1000.95 1000.47
1011.80 1011.90 1011.57 1011.27 1011.48 1011.11 1010.89 1010.78 1010.73 1011.18 1010.91 1010.76 1010.06 1009.01 1008.21 1008.25 1008.21 1007.85 1007.65 1007.48 1006.96 1006.74 1006.88 1006.79 1006.50 1006.00 1005.17 1004.69 1004.70 1004.72 1004.69 1004.50 1004.51 1004.63 1004.99 1005.02 1005.13 1005.04 1005.08 1005.02 1004.96 1004.79 1004.55 1004.29 1004.00 1003.66 1003.51 1003.23 1002.94 1002.51 1001.99 1001.37 1000.75 1000.30
1011.13 1011.37 1010.85 1011.00 1011.14 1010.99 1010.71 1010.84 1010.72 1010.31 1010.08 1009.17 1008.38 1007.84 1007.84 1007.85 1007.88 1007.61 1007.19 1006.99 1006.65 1006.83 1006.88 1006.65 1006.07 1005.26 1004.47 1004.40 1004.32 1004.52 1004.59 1004.59 1004.58 1005.03 1005.28 1005.36 1005.44 1005.35 1005.32 1005.26 1004.97 1004.69 1004.39 1004.05 1003.68 1003.36 1003.27 1002.99 1002.80 1002.28 1001.96 1001.18 1000.65 1000.10
1010.80 1010.82 1010.46 1010.71 1010.86 1010.77 1010.62 1010.47 1010.40 1009.58 1008.50 1007.72 1007.66 1007.37 1007.21 1006.92 1006.94 1006.75 1006.61 1006.36 1006.57 1006.50 1006.26 1005.95 1005.45 1004.91 1004.50 1004.16 1004.37 1004.64 1004.85 1005.10 1005.42 1005.61 1005.78 1005.60 1005.77 1005.85 1005.81 1005.51 1005.02 1004.58 1004.23 1003.83 1003.39 1003.14 1003.02 1002.84 1002.51 1002.08 1001.60 1001.13 1000.55 999.97
1010.45 1010.14 1010.11 1010.19 1010.39 1010.75 1010.79 1010.14 1009.54 1008.52 1007.18 1006.73 1006.37 1006.40 1006.34 1006.06 1005.60 1005.45 1005.45 1005.38 1005.32 1005.21 1005.49 1005.16 1004.99 1004.68 1004.58 1004.67 1004.76 1004.83 1005.12 1005.21 1005.71 1005.77 1005.74 1005.98 1005.98 1006.15 1005.90 1005.52 1005.03 1004.51 1004.06 1003.72 1003.39 1003.14 1002.83 1002.71 1002.36 1001.92 1001.44 1000.98 1000.61 1000.03
1009.76 1009.79 1009.64 1009.63 1009.97 1010.63 1010.62 1009.68 1008.69 1007.66 1006.26 1005.70 1005.56 1005.53 1005.35 1005.09 1004.75 1004.64 1004.60 1004.59 1004.72 1004.78 1004.72 1004.46 1004.52 1004.37 1004.28 1004.41 1004.47 1004.71 1005.06 1005.24 1005.70 1006.08 1006.32 1006.36 1006.39 1005.99 1005.91 1005.65 1005.18 1004.56 1004.06 1003.79 1003.56 1003.29 1002.87 1002.71 1002.19 1001.75 1001.31 1000.91 1000.52 999.98
1009.21 1008.98 1009.06 1009.24 1009.74 1010.21 1009.97 1009.11 1008.08 1006.48 1005.52 1005.05 1004.53 1004.56 1004.45 1004.21 1004.15 1004.36 1004.09 1003.67 1004.07 1003.96 1004.07 1004.06 1004.16 1004.03 1003.91 1004.25 1004.51 1004.81 1005.18 1005.36 1005.77 1006.08 1006.33 1006.74 1006.58 1006.35 1006.10 1005.68 1005.30 1005.09 1004.85 1004.65 1004.38 1004.01 1003.52 1003.06 1002.45 1001.83 1001.30 1000.77 1000.25 999.85
1008.25 1008.06 1008.72 1008.87 1009.58 1009.63 1008.95 1008.09 1007.66 1006.38 1005.95 1004.84 1004.36 1004.08 1003.97 1004.23 1003.63 1003.33 1002.89 1003.24 1003.36 1003.23 1003.19 1003.31 1003.64 1004.10 1004.53 1004.90 1005.05 1005.24 1005.55 1005.67 1005.89 1006.22 1006.60 1006.69 1006.84 1006.65 1006.40 1006.05 1005.92 1005.84 1005.69 1005.50 1005.09 1004.69 1004.20 1003.66 1002.92 1002.08 1001.38 1000.74 1000.13 999.72
1007.73 1007.90 1008.56 1008.98 1009.48 1008.99 1007.77 1006.81 1006.86 1006.25 1005.96 1004.81 1004.29 1004.16 1003.73 1003.59 1002.92 1002.65 1003.01 1002.96 1003.00 1002.77 1002.84 1002.96 1003.22 1003.83 1004.44 1004.99 1005.32 1005.70 1005.94 1006.07 1006.45 1006.89 1007.11 1007.17 1007.11 1007.03 1006.75 1006.67 1006.68 1006.62 1006.40 1006.03 1005.67 1005.18 1004.68 1004.12 1003.33 1002.58 1001.60 1000.83 1000.29 999.89
1007.12 1007.85 1008.39 1008.69 1008.63 1008.37 1006.98 1006.09 1005.63 1005.00 1004.41 1004.22 1003.89 1003.63 1003.18 1002.93 1002.63 1002.88 1003.21 1003.28 1003.38 1003.30 1003.35 1003.55 1003.73 1004.48 1005.05 1005.37 1005.81 1006.24 1006.47 1006.53 1006.99 1007.35 1007.44 1007.59 1007.73 1007.67 1007.40 1007.41 1007.44 1007.39 1007.22 1006.71 1006.24 1005.71 1005.11 1004.50 1003.80 1003.00 1002.18 1001.28 1000.56 1000.08
1007.47 1007.78 1008.11 1007.76 1007.51 1007.43 1007.02 1006.03 1005.00 1004.83 1004.28 1003.96 1003.75 1003.44 1002.87 1002.71 1003.02 1003.37 1003.37 1003.36 1003.59 1003.95 1004.07 1004.22 1004.41 1004.60 1005.17 1005.65 1006.10 1006.65 1006.90 1006.88 1007.30 1007.88 1008.01 1008.04 1008.19 1008.21 1008.17 1008.13 1008.06 1007.89 1007.57 1007.16 1006.67 1006.15 1005.53 1004.85 1004.20 1003.51 1002.73 1002.00 1001.19 1000.30
1006.70 1006.57 1006.75 1006.52 1006.41 1006.34 1005.80 1005.16 1004.36 1003.72 1003.56 1003.86 1003.38 1002.73 1002.59 1003.00 1003.52 1003.35 1003.40 1003.57 1003.70 1004.34 1004.48 1004.52 1004.85 1004.96 1005.04 1005.32 1006.13 1006.81 1007.07 1006.91 1007.17 1007.86 1008.26 1008.51 1008.64 1009.02 1009.29 1009.07 1008.86 1008.36 1007.92 1007.65 1007.22 1006.65 1006.00 1005.27 1004.53 1003.82 1003.08 1002.30 1001.52 1000.84
1005.94 1005.61 1004.98 1004.56 1004.40 1004.35 1004.47 1004.19 1003.65 1003.32 1003.23 1003.10 1002.56 1002.86 1003.01 1003.30 1003.56 1003.74 1003.64 1003.77 1004.11 1004.30 1004.11 1004.15 1004.26 1004.77 1005.35 1005.90 1006.44 1006.81 1006.96 1007.06 1007.24 1007.60 1008.00 1008.40 1008.69 1009.11 1009.32 1009.41 1009.19 1008.93 1008.17 1007.83 1007.45 1007.00 1006.34 1005.57 1004.80 1004.08 1003.35 1002.51 1001.84 1001.16
1004.35 1004.51 1004.64 1004.14 1004.11 1004.06 1004.08 1003.90 1003.74 1003.56 1002.07 1001.96 1002.01 1002.72 1003.04 1003.30 1003.86 1004.04 1004.18 1004.28 1004.36 1004.38 1004.57 1004.77 1004.89 1005.23 1005.94 1006.58 1007.02 1007.29 1007.54 1007.58 1007.86 1008.24 1008.76 1009.03 1009.06 1009.42 1009.47 1009.34 1009.00 1008.60 1008.32 1007.91 1007.62 1006.78 1006.21 1005.55 1004.89 1004.22 1003.50 1002.70 1001.71 1000.88
1003.53 1003.36 1003.74 1004.07 1003.98 1003.64 1003.48 1003.13 1002.88 1002.32 1002.20 1001.99 1002.35 1003.23 1003.52 1003.87 1004.04 1004.06 1004.39 1004.49 1004.46 1004.82 1005.34 1005.78 1006.33 1006.49 1006.99 1007.45 1007.85 1008.16 1008.26 1008.47 1008.92 1009.39 1009.77 1010.09 1010.15 1010.41 1010.02 1009.74 1009.40 1009.00 1008.58 1008.16 1007.35 1006.68 1005.98 1005.30 1004.80 1004.18 1003.54 1002.78 1001.83 1000.80
1002.65 1002.67 1003.31 1003.79 1003.57 1003.30 1002.62 1002.20 1002.40 1002.33 1002.22 1002.40 1002.82 1003.68 1004.35 1004.63 1004.30 1004.02 1004.51 1004.73 1005.08 1005.40 1005.55 1005.89 1006.40 1006.84 1007.63 1008.10 1008.88 1009.16 1009.21 1009.14 1009.19 1009.92 1010.17 1010.60 1010.84 1010.84 1010.60 1010.34 1010.04 1009.35 1008.83 1008.47 1007.83 1007.09 1006.27 1005.84 1004.96 1004.29 1003.80 1002.98 1002.15 1001.26
1001.60 1002.21 1002.63 1002.73 1002.97 1002.54 1002.11 1002.64 1002.40 1002.57 1002.92 1003.61 1003.79 1004.57 1005.20 1005.30 1004.83 1004.40 1004.61 1004.74 1004.92 1005.28 1005.78 1006.36 1006.85 1007.26 1007.82 1008.54 1009.14 1009.60 1010.14 1010.17 1010.15 1010.29 1010.54 1010.76 1010.87 1010.92 1010.85 1010.30 1009.86 1009.45 1009.11 1008.85 1008.33 1007.84 1007.31 1006.85 1006.39 1005.75 1004.91 1004.04 1003.12 1002.25
1001.15 1001.56 1002.28 1002.93 1003.32 1003.09 1002.92 1003.35 1003.39 1004.07 1004.25 1004.91 1005.41 1005.34 1005.80 1005.80 1005.91 1005.03 1004.53 1004.49 1004.89 1005.32 1005.76 1006.31 1006.96 1007.64 1007.84 1008.16 1008.58 1008.96 1009.30 1010.15 1010.57 1010.63 1010.65 1010.91 1010.97 1010.59 1010.42 1010.19 1009.86 1009.54 1009.40 1009.25 1008.93 1008.53 1008.16 1008.01 1007.70 1006.89 1006.05 1005.03 1004.00 1002.96
1001.04 1001.68 1002.39 1003.22 1003.72 1003.96 1003.87 1004.04 1004.26 1004.97 1005.26 1005.22 1005.43 1005.42 1005.43 1005.55 1005.62 1004.94 1004.29 1004.14 1004.51 1004.93 1005.69 1006.33 1006.83 1007.44 1007.96 1008.33 1008.85 1009.53 1009.72 1009.98 1010.17 1010.31 1010.39 1010.44 1010.52 1010.62 1010.60 1010.36 1010.06 1009.80 1009.94 1009.81 1009.63 1009.36 1009.14 1008.88 1008.69 1007.95 1007.01 1005.97 1004.90 1003.77
Thickness
5412 5411 5409 5406 5404 5401 5397 5393 5388 5384 5381 5377 5373 5370 5366 5362 5356 5350 5341 5331 5322 5323 5333 5330 5326 5317 5314 5303 5303 5302 5304 5298 5284 5307 5289 5299 5321 5346 5349 5374 5387 5385 5374 5360 5373 5384 5403 5455 5464 5455 5457 5468 5479 5485
5403 5402 5400 5398 5396 5393 5389 5385 5380 5377 5375 5373 5369 5368 5366 5360 5353 5347 5337 5329 5323 5320 5326 5327 5327 5325 5319 5317 5309 5309 5315 5313 5303 5291 5297 5311 5320 5336 5352 5352 5394 5382 5384 5385 5393 5396 5422 5429 5435 5449 5452 5461 5474 5480
5393 5392 5391 5389 5387 5384 5380 5376 5373 5372 5371 5368 5365 5364 5362 5358 5354 5345 5333 5325 5317 5317 5326 5326 5328 5336 5333 5328 5323 5310 5316 5317 5321 5323 5315 5315 5320 5328 5344 5366 5382 5396 5391 5382 5389 5412 5412 5413 5433 5447 5453 5455 5468 5473
5381 5382 5381 5379 5377 5374 5372 5368 5367 5367 5365 5361 5360 5357 5354 5352 5349 5343 5329 5323 5314 5311 5319 5326 5339 5334 5339 5336 5332 5331 5329 5326 5325 5321 5319 5325 5337 5343 5346 5365 5366 5380 5383 5391 5391 5406 5417 5428 5432 5444 5450 5454 5459 5465
5368 5369 5369 5368 5366 5364 5362 5360 5358 5358 5357 5355 5354 5354 5348 5346 5343 5338 5328 5323 5317 5305 5305 5319 5331 5350 5349 5342 5339 5334 5332 5327 5326 5325 5331 5335 5341 5340 5339 5349 5367 5383 5387 5376 5380 5403 5404 5414 5430 5435 5440 5445 5447 5451
5354 5355 5356 5356 5355 5354 5352 5351 5352 5351 5352 5350 5347 5347 5346 5342 5336 5328 5312 5325 5320 5311 5297 5305 5328 5344 5353 5350 5346 5340 5339 5334 5329 5334 5339 5344 5347 5344 5345 5353 5394 5395 5395 5396 5387 5404 5415 5420 5427 5428 5428 5427 5429 5431
5341 5342 5342 5343 5342 5341 5342 5343 5345 5346 5345 5344 5342 5340 5340 5338 5332 5317 5314 5319 5315 5308 5304 5314 5317 5339 5355 5352 5344 5336 5340 5340 5338 5338 5344 5336 5343 5343 5345 5362 5395 5383 5389 5395 5392 5402 5406 5409 5408 5411 5413 5416 5416 5417
5329 5329 5330 5330 5330 5330 5332 5334 5337 5338 5338 5337 5338 5335 5335 5333 5331 5325 5326 5319 5312 5302 5302 5306 5314 5323 5346 5326 5331 5338 5336 5337 5338 5339 5342 5337 5335 5335 5347 5373 5378 5385 5392 5396 5393 5388 5392 5396 5397 5398 5398 5397 5398 5400
5316 5316 5317 5319 5319 5321 5322 5325 5329 5331 5332 5331 5331 5331 5329 5326 5322 5323 5330 5322 5310 5300 5297 5306 5303 5296 5338 5329 5328 5338 5339 5341 5331 5338 5337 5339 5343 5355 5371 5373 5379 5373 5371 5375 5378 5377 5380 5381 5382 5384 5384 5383 5383 5383
5303 5305 5305 5307 5308 5310 5313 5316 5319 5323 5325 5325 5324 5322 5322 5324 5330 5327 5322 5315 5306 5308 5306 5313 5313 5316 5323 5323 5316 5327 5335 5339 5343 5348 5334 5348 5358 5370 5362 5358 5360 5361 5360 5361 5360 5364 5361 5363 5366 5373 5376 5374 5373 5374
5292 5293 5294 5296 5298 5301 5303 5306 5310 5313 5318 5316 5316 5315 5322 5326 5320 5315 5317 5313 5312 5316 5319 5328 5325 5325 5325 5322 5317 5321 5325 5333 5340 5354 5349 5348 5358 5358 5349 5350 5346 5345 5352 5353 5351 5351 5353 5356 5359 5363 5369 5366 5365 5364
5279 5281 5284 5287 5288 5291 5294 5298 5300 5302 5306 5309 5309 5311 5313 5314 5299 5304 5299 5316 5318 5328 5327 5324 5330 5328 5331 5336 5331 5331 5342 5337 5356 5344 5337 5346 5354 5351 5348 5345 5346 5347 5344 5344 5346 5347 5348 5349 5349 5349 5346 5350 5354 5358
5268 5269 5273 5276 5279 5282 5286 5291 5293 5293 5296 5299 5299 5300 5298 5299 5295 5309 5281 5320 5308 5333 5334 5342 5337 5340 5341 5343 5341 5344 5349 5344 5347 5308 5337 5346 5340 5344 5341 5341 5341 5340 5337 5335 5337 5337 5337 5337 5339 5336 5337 5339 5342 5344
5258 5260 5264 5267 5271 5273 5276 5285 5286 5285 5285 5284 5292 5293 5301 5298 5313 5320 5321 5317 5329 5337 5331 5330 5327 5338 5340 5340 5338 5339 5345 5338 5320 5311 5347 5340 5336 5334 5336 5334 5333 5330 5328 5329 5330 5330 5328 5328 5330 5330 5332 5333 5334 5337
5247 5251 5254 5259 5263 5268 5270 5274 5278 5277 5276 5279 5286 5287 5313 5324 5321 5317 5319 5324 5330 5327 5322 5322 5318 5328 5333 5335 5337 5339 5328 5329 5339 5322 5326 5325 5329 5327 5326 5325 5322 5321 5321 5321 5323 5322 5320 5321 5321 5324 5326 5327 5329 5330
5236 5238 5243 5248 5250 5256 5259 5262 5265 5264 5267 5272 5284 5300 5309 5306 5298 5295 5302 5304 5314 5315 5304 5303 5316 5317 5332 5339 5337 5328 5343 5323 5320 5326 5313 5317 5320 5319 5317 5317 5317 5315 5315 5316 5317 5317 5315 5316 5315 5316 5312 5315 5323 5323
5228 5230 5234 5238 5239 5243 5247 5249 5252 5259 5263 5279 5283 5297 5296 5292 5290 5295 5294 5298 5305 5296 5289 5309 5311 5318 5321 5322 5337 5322 5307 5305 5319 5316 5312 5313 5309 5310 5308 5306 5308 5310 5308 5307 5309 5310 5308 5310 5306 5311 5312 5315 5317 5315
5219 5219 5225 5227 5229 5232 5235 5238 5241 5251 5269 5282 5278 5286 5284 5288 5287 5287 5293 5296 5291 5291 5293 5300 5310 5315 5302 5334 5323 5314 5313 5308 5305 5301 5296 5299 5298 5296 5293 5292 5296 5298 5299 5298 5301 5302 5301 5303 5303 5305 5308 5308 5311 5310
5209 5213 5215 5217 5220 5217 5217 5228 5234 5247 5269 5272 5277 5281 5283 5283 5287 5294 5294 5292 5291 5296 5294 5300 5303 5303 5306 5306 5303 5296 5296 5298 5291 5289 5289 5290 5289 5282 5281 5282 5286 5289 5292 5292 5293 5295 5296 5295 5296 5300 5302 5304 5304 5304
5201 5202 5206 5208 5210 5200 5206 5219 5230 5244 5265 5269 5276 5280 5278 5278 5284 5277 5285 5286 5286 5289 5289 5296 5296 5289 5290 5288 5285 5288 5284 5283 5280 5271 5267 5269 5270 5274 5274 5274 5277 5282 5285 5284 5284 5285 5288 5281 5284 5295 5297 5298 5298 5300
5191 5196 5195 5198 5196 5195 5200 5211 5221 5242 5254 5258 5270 5268 5266 5266 5267 5263 5275 5278 5273 5287 5286 5284 5269 5273 5276 5275 5276 5277 5274 5274 5271 5270 5265 5259 5260 5263 5264 5269 5271 5269 5268 5263 5265 5268 5273 5275 5279 5286 5289 5292 5295 5295
5184 5186 5183 5185 5181 5185 5197 5207 5216 5228 5228 5247 5254 5259 5254 5241 5243 5262 5273 5274 5276 5272 5271 5271 5267 5266 5264 5264 5260 5263 5262 5265 5266 5264 5260 5257 5250 5253 5257 5259 5255 5249 5250 5250 5255 5257 5259 5263 5269 5278 5283 5287 5290 5292
5172 5174 5171 5172 5171 5178 5189 5206 5209 5217 5209 5226 5240 5241 5237 5235 5254 5260 5259 5267 5265 5256 5261 5261 5261 5258 5254 5251 5254 5253 5250 5252 5250 5247 5243 5242 5244 5246 5249 5247 5242 5237 5238 5241 5244 5247 5248 5250 5256 5262 5274 5281 5284 5286
5164 5161 5157 5157 5166 5151 5192 5193 5210 5221 5225 5228 5229 5227 5236 5233 5244 5233 5237 5232 5237 5248 5249 5250 5251 5242 5238 5240 5235 5233 5233 5236 5237 5233 5230 5233 5232 5232 5238 5234 5230 5227 5226 5229 5231 5233 5237 5240 5245 5252 5258 5270 5278 5280
5147 5146 5142 5139 5165 5157 5162 5173 5202 5209 5205 5205 5220 5229 5222 5235 5230 5230 5228 5223 5232 5238 5235 5235 5233 5234 5228 5225 5229 5224 5219 5226 5229 5218 5214 5219 5217 5217 5218 5219 5218 5214 5217 5217 5218 5221 5226 5231 5236 5240 5246 5253 5263 5275
5142 5141 5149 5144 5139 5159 5165 5168 5175 5183 5206 5190 5204 5216 5223 5215 5213 5217 5227 5220 5222 5221 5214 5220 5215 5223 5228 5230 5223 5214 5214 5218 5221 5211 5206 5207 5204 5199 5194 5194 5196 5200 5205 5203 5207 5209 5213 5219 5225 5231 5235 5242 5250 5260
5127 5123 5165 5176 5183 5188 5174 5179 5199 5197 5204 5188 5190 5208 5216 5225 5227 5217 5219 5218 5216 5211 5213 5215 5220 5220 5218 5216 5213 5208 5208 5211 5212 5209 5205 5200 5198 5194 5191 5184 5185 5189 5194 5194 5193 5195 5200 5205 5213 5220 5225 5233 5240 5248
5139 5154 5149 5160 5159 5182 5164 5181 5188 5195 5212 5224 5225 5221 5204 5203 5198 5199 5200 5204 5202 5208 5208 5208 5210 5209 5205 5202 5199 5198 5198 5198 5199 5201 5196 5193 5190 5184 5182 5181 5181 5184 5182 5182 5182 5185 5189 5195 5200 5207 5214 5222 5233 5242
5141 5154 5153 5130 5143 5162 5161 5171 5188 5202 5205 5207 5198 5192 5200 5198 5193 5192 5197 5195 5195 5198 5196 5194 5188 5192 5190 5189 5187 5186 5185 5184 5188 5174 5173 5169 5161 5169 5170 5169 5170 5170 5170 5171 5174 5178 5183 5186 5189 5195 5202 5211 5222 5235
5137 5159 5157 5137 5151 5162 5169 5189 5187 5191 5197 5194 5193 5187 5180 5174 5181 5185 5187 5188 5186 5186 5188 5189 5187 5185 5178 5178 5169 5173 5171 5169 5169 5168 5157 5151 5156 5157 5153 5156 5157 5157 5157 5157 5160 5165 5170 5171 5177 5181 5188 5197 5207 5216
5163 5162 5152 5164 5171 5172 5183 5175 5175 5176 5167 5167 5159 5161 5160 5159 5176 5179 5180 5179 5184 5184 5183 5181 5178 5176 5178 5169 5162 5157 5156 5158 5157 5157 5155 5151 5147 5145 5144 5145 5143 5144 5144 5145 5149 5148 5149 5152 5158 5163 5169 5178 5187 5197
5149 5159 5164 5156 5149 5164 5170 5163 5151 5151 5147 5150 5151 5143 5146 5144 5153 5164 5176 5178 5182 5181 5178 5176 5173 5167 5165 5163 5160 5159 5161 5154 5148 5146 5145 5141 5138 5136 5134 5134 5133 5132 5133 5135 5134 5134 5137 5138 5140 5146 5154 5162 5172 5183
5174 5165 5163 5160 5153 5148 5145 5152 5157 5155 5138 5145 5143 5141 5146 5153 5153 5164 5174 5178 5180 5180 5174 5170 5169 5166 5163 5161 5156 5150 5148 5144 5141 5141 5137 5134 5130 5127 5123 5121 5121 5123 5123 5122 5122 5123 5124 5126 5127 5133 5140 5147 5159 5170